Theta_e
316 315 314 315 321 321 322 321 320 320 320 320 321 320 322 322 323 321 319 317 317 316 314 312 311 311 310 309 309 309 308 307 306 306 306 305 304 303 303 303 303 303 302
317 318 319 319 319 318 318 318 319 319 320 321 322 321 318 315 313 311 310 310 309 309 309 308 308 307 307 306 306 305 303 304 304 303 303 303 302 302 301 301 301 300 301
313 315 316 317 318 318 318 318 317 315 313 311 310 309 309 309 309 308 307 306 306 305 304 304 303 303 302 302 301 302 302 301 301 301 301 300 299 298 298 298 298 297 297
309 310 310 309 309 309 309 309 308 308 308 307 306 305 303 302 301 300 299 299 298 298 297 297 297 296 296 296 296 296 296 297 298 297 297 297 297 297 297 298 298 297 297
309 309 308 308 308 307 305 303 301 300 299 298 298 297 297 296 296 295 295 295 295 295 295 294 294 294 294 294 295 295 295 295 295 295 295 295 295 296 297 298 297 298 295
307 306 305 303 301 300 298 297 296 296 295 294 294 294 294 294 293 293 293 293 293 293 293 293 292 292 291 291 291 290 290 291 292 293 294 294 294 293 294 295 295 294 294
302 301 299 298 296 295 295 294 294 294 294 294 294 294 293 293 293 293 293 292 292 292 292 292 292 292 291 291 291 291 291 290 290 290 290 291 291 292 293 292 291 292 293
298 297 296 294 294 294 294 294 293 293 293 293 293 292 292 292 292 292 291 291 291 291 291 290 290 290 290 290 291 291 290 290 291 291 290 291 290 290 290 290 290 290 291
295 294 293 293 293 293 293 293 293 292 292 292 292 292 292 291 291 291 290 290 290 290 289 289 289 290 290 290 290 290 290 290 290 288 288 288 288 288 289 288 289 290 291
292 292 292 292 292 292 293 292 292 292 292 291 291 290 290 290 290 289 289 289 289 289 289 289 289 289 289 288 287 288 287 288 287 288 288 288 287 288 288 288 288 288 289
291 292 293 295 295 294 293 291 291 290 290 290 290 290 289 289 289 289 289 289 289 288 289 289 288 288 288 287 287 287 287 287 287 287 287 288 287 287 288 288 288 289 288
294 292 291 293 295 295 292 290 289 289 289 289 289 289 289 289 289 289 289 289 289 289 289 289 289 289 287 287 286 287 287 287 287 287 286 286 286 286 287 287 287 287 287
294 296 294 293 290 289 289 289 289 289 288 288 288 288 288 289 289 289 289 289 289 289 289 289 289 288 287 286 286 285 286 287 287 286 286 285 285 285 285 285 286 286 286
294 293 291 289 289 288 288 288 288 288 288 288 288 288 288 288 288 288 288 288 288 288 288 288 288 286 286 285 285 286 287 287 287 286 285 285 285 285 285 285 286 286 286
289 288 289 288 288 288 287 287 287 287 287 287 287 286 286 286 285 285 284 284 284 283 284 285 285 284 284 284 285 286 286 286 286 286 285 285 285 284 285 285 285 285 285
291 288 288 287 287 287 287 286 286 286 286 285 285 284 284 284 283 284 284 283 284 283 284 283 283 283 284 284 285 286 286 285 285 285 285 285 284 284 285 284 284 284 283
288 287 287 287 286 286 286 286 286 285 285 284 284 284 283 283 282 282 282 283 282 282 282 282 282 282 283 283 284 285 285 284 285 285 285 284 284 284 284 284 284 283 283
287 287 286 286 286 286 286 285 285 285 285 284 283 283 282 282 281 282 282 282 282 281 281 281 281 281 282 282 283 283 283 284 284 284 284 284 284 284 284 284 283 283 282
286 286 286 285 285 285 285 284 284 283 282 282 282 281 281 281 281 280 280 280 280 280 280 279 279 280 280 281 281 282 283 283 283 284 284 284 284 284 284 284 283 283 283
285 285 285 285 284 283 283 283 283 282 281 280 279 279 279 279 279 278 278 278 277 277 277 277 277 277 278 278 279 280 281 282 282 283 283 283 283 283 283 283 283 283 283
284 283 284 284 283 283 282 282 281 280 279 278 277 277 277 277 276 276 275 276 276 275 275 275 275 275 276 276 277 278 278 279 280 281 282 282 283 283 283 283 283 283 283
283 283 283 283 282 281 280 280 279 279 278 277 277 276 276 275 275 275 275 275 275 274 274 274 274 274 274 274 275 275 276 277 278 278 279 281 282 282 282 282 282 282 282
282 282 282 281 280 279 278 278 278 277 277 276 276 275 275 275 274 274 274 274 274 274 274 274 274 274 274 274 273 273 274 274 275 276 277 278 280 280 281 281 282 282 282
281 281 280 279 278 277 277 277 277 276 275 275 275 275 274 274 274 273 273 273 273 273 273 273 273 273 273 274 274 274 273 273 273 275 275 276 277 279 279 280 281 281 281
279 279 279 278 277 277 276 276 275 275 275 274 274 273 273 272 272 271 271 271 271 271 271 271 270 271 271 272 272 273 274 274 273 274 274 275 275 276 277 278 279 279 279
278 279 278 277 276 275 275 275 275 274 274 273 273 272 271 271 271 271 271 271 271 271 271 271 270 270 270 270 270 270 271 271 273 273 274 274 274 275 275 276 276 277 277
Wind_Speed
10 11 11 12 12 13 14 15 17 17 18 18 18 18 19 20 21 23 23 22 22 23 23 25 26 26 28 28 29 30 32 34 43 51 48 46 46 46 45 43 41 39 38
10 11 12 12 12 11 12 12 12 12 13 14 15 16 16 15 14 15 16 17 19 20 22 23 24 25 26 27 28 30 31 33 38 49 47 48 47 47 49 49 48 45 42
12 12 11 11 11 10 10 10 10 9 8 7 7 8 8 10 12 13 14 14 15 17 19 21 22 24 26 27 29 30 32 34 36 43 53 48 50 49 51 49 49 49 48
14 13 13 13 12 11 10 9 7 6 5 4 3 3 4 7 10 12 14 15 17 18 20 22 23 25 26 27 29 30 32 34 35 40 47 50 48 47 46 45 50 49 51
16 15 15 14 13 11 10 8 6 4 2 1 2 5 7 10 14 17 18 20 22 23 24 25 27 28 28 29 31 32 33 35 37 41 46 50 48 43 41 43 47 47 53
17 16 14 13 12 10 7 5 2 0 2 5 6 7 9 12 15 18 21 23 24 26 28 29 30 31 33 33 34 34 35 36 38 38 45 45 52 48 45 43 41 46 48
17 16 14 12 9 7 5 3 1 1 4 6 8 10 12 15 19 22 26 27 28 30 32 34 35 35 36 38 38 38 37 36 36 37 43 45 48 45 41 44 45 43 48
17 16 13 11 9 6 4 2 2 5 7 10 12 14 17 19 23 26 29 31 32 33 34 35 36 36 36 36 37 38 38 37 36 37 37 42 42 44 42 43 46 46 48
17 14 12 9 7 4 1 3 6 9 11 14 17 19 20 21 24 26 29 31 33 34 34 33 34 35 35 35 36 37 39 39 38 35 36 38 40 41 41 40 43 42 42
16 13 10 7 3 2 6 9 13 16 17 17 18 20 22 23 24 26 28 31 33 34 35 36 36 36 36 31 32 35 41 45 43 42 41 41 40 40 39 37 39 39 42
14 10 5 4 5 8 10 11 12 14 16 18 19 20 22 25 26 28 29 30 32 34 36 39 38 37 37 35 33 36 39 38 39 40 41 42 39 37 35 36 37 37 39
10 7 4 5 7 10 11 11 13 16 18 19 20 22 24 25 27 29 30 31 33 36 39 41 42 41 39 37 36 36 33 33 35 38 40 43 42 39 35 35 38 39 40
7 4 2 4 6 7 8 10 13 16 18 21 23 26 27 28 28 29 31 32 33 35 37 39 40 41 40 42 39 34 33 32 32 34 36 41 40 38 38 36 33 28 28
4 2 7 6 4 6 9 12 14 17 20 23 25 27 29 29 29 30 32 34 34 35 37 38 38 38 38 37 36 34 32 32 31 35 38 38 35 35 33 30 29 26 28
10 7 4 5 5 8 11 13 15 17 19 21 23 26 28 30 29 30 31 33 34 34 35 35 36 35 36 36 35 33 32 30 33 34 34 34 34 33 30 26 24 26 25
9 9 5 4 7 9 11 12 13 14 16 19 21 24 25 25 27 29 30 30 30 29 28 25 28 29 30 32 33 34 32 32 33 32 30 30 29 28 25 22 20 20 20
10 7 6 7 8 10 11 13 14 13 15 16 19 22 24 25 26 26 28 29 26 25 24 23 24 26 29 30 26 27 31 32 29 27 28 28 27 22 21 19 20 18 17
9 9 8 9 10 12 13 14 17 17 18 17 18 20 23 22 23 26 28 28 27 24 23 24 25 25 25 26 26 26 27 28 28 27 26 25 22 20 18 17 17 16 16
10 10 10 11 11 12 13 16 18 19 18 18 18 17 21 21 21 22 23 25 26 25 24 23 23 25 25 26 26 26 25 25 23 24 25 23 21 19 17 16 16 15 14
13 12 11 11 11 11 14 16 17 18 18 18 19 21 23 24 24 23 21 21 22 23 24 24 24 23 24 25 26 25 25 23 21 20 18 19 20 20 19 17 16 16 14
13 11 11 12 12 12 13 14 15 16 17 17 17 18 20 22 22 21 21 21 22 23 24 24 25 24 23 24 24 24 23 23 22 21 20 19 17 19 19 17 16 15 13
12 11 12 12 13 11 11 12 14 15 16 17 17 17 18 18 19 20 20 20 20 21 22 23 23 24 24 24 23 23 23 23 23 22 21 19 17 16 17 16 16 15 14
13 13 13 12 11 11 10 12 14 15 16 17 18 19 19 19 19 20 20 20 20 21 21 22 23 22 22 22 22 22 23 24 24 24 24 22 19 18 16 15 14 15 15
14 14 13 12 11 11 12 13 15 16 17 18 18 19 20 20 20 21 21 21 21 20 21 21 22 22 22 22 22 21 21 21 23 23 23 23 22 20 18 16 15 13 14
15 14 13 12 12 13 13 15 16 17 18 19 20 20 20 21 21 20 21 21 21 21 20 21 21 22 22 22 22 22 21 21 21 22 21 22 21 21 19 18 16 15 13
16 15 14 13 13 14 15 16 17 19 20 20 21 21 21 21 21 21 21 22 23 22 23 22 22 22 22 22 22 22 22 22 21 23 22 21 22 21 20 18 16 15 13
Wind_Direction
201 197 202 208 212 216 220 231 236 243 248 254 256 258 257 260 260 267 272 276 277 280 283 286 288 288 286 286 287 286 285 284 287 294 296 302 301 303 303 303 302 299 298
191 180 173 179 188 198 206 214 222 228 238 243 248 255 259 261 266 270 272 276 282 286 289 291 294 297 297 298 298 298 297 294 292 297 300 301 302 303 304 305 305 304 303
179 179 176 179 186 190 195 203 210 216 221 230 245 257 269 278 282 284 289 293 296 300 303 304 305 305 305 305 306 303 300 299 294 296 298 300 301 303 304 303 303 304 304
174 171 168 166 166 167 166 169 171 176 186 196 212 249 287 298 300 299 298 299 300 301 302 302 303 303 304 304 302 299 298 296 295 294 297 299 299 301 300 299 299 302 302
177 169 165 162 161 159 156 151 147 147 156 272 305 314 315 313 309 305 304 304 303 303 304 304 302 301 300 299 299 300 299 298 296 295 294 297 296 297 295 297 296 298 302
177 169 164 162 160 159 154 148 139 349 330 322 323 327 325 318 313 311 310 311 311 310 310 309 309 309 307 305 302 299 297 297 294 293 294 291 296 296 296 293 293 295 295
174 169 166 163 161 156 150 144 120 355 340 329 333 331 328 321 317 315 313 315 315 314 312 310 306 305 304 304 303 301 299 297 294 294 293 293 296 297 293 293 294 289 288
175 172 169 167 164 155 142 104 10 343 333 333 334 328 331 323 317 317 314 311 309 307 305 304 304 305 306 306 305 304 304 303 305 303 300 300 299 298 295 295 294 293 291
177 173 169 164 158 146 114 359 341 337 333 333 333 322 320 320 317 316 314 312 310 308 307 306 306 307 308 309 309 308 307 307 309 306 302 298 300 298 291 293 289 286 285
172 167 158 146 120 32 358 347 339 332 326 321 327 327 325 324 324 323 321 319 317 316 315 316 316 316 316 315 311 310 306 309 311 310 308 307 307 301 298 293 292 288 287
160 148 123 65 13 352 343 326 315 319 327 328 329 330 330 331 332 330 329 327 324 321 320 320 318 316 313 310 307 302 301 306 304 301 305 313 315 312 309 304 300 292 291
141 119 82 17 341 314 300 315 323 328 328 328 331 334 335 336 334 332 329 326 323 320 320 318 317 317 314 311 308 306 302 306 308 308 312 316 317 316 311 301 297 293 293
124 117 42 309 274 297 317 325 329 330 330 331 333 334 333 332 331 328 325 324 322 320 319 316 315 315 317 317 319 315 315 312 309 309 310 309 313 315 312 307 305 301 302
129 134 231 241 285 315 323 327 328 327 329 332 332 330 327 328 328 326 326 325 325 322 321 319 320 321 322 326 327 328 324 323 316 314 314 315 315 315 314 314 310 311 306
199 199 235 260 303 319 319 321 328 330 328 330 330 331 330 331 333 333 330 330 328 326 322 323 324 326 327 330 330 327 325 322 317 317 315 315 316 315 314 315 315 309 304
217 215 224 268 291 303 314 322 322 325 333 336 335 333 332 332 331 330 328 325 328 327 328 322 319 320 319 322 325 328 326 326 323 319 316 317 315 315 314 316 318 315 308
205 213 238 267 291 302 310 319 324 332 337 337 335 334 331 333 332 330 326 327 332 331 329 324 316 314 316 314 320 332 325 324 324 320 321 319 317 315 314 318 321 320 314
216 234 255 276 293 307 315 321 324 328 336 342 337 334 330 333 333 330 329 329 326 333 338 340 337 333 332 329 323 319 320 326 329 326 323 321 318 312 317 321 318 322 315
237 254 270 287 296 307 319 326 328 329 336 339 335 333 329 336 337 337 332 329 330 332 334 339 339 337 334 332 329 327 322 319 323 331 328 324 322 321 317 318 318 317 309
248 260 275 288 301 318 325 325 325 326 331 336 338 336 333 337 339 341 342 339 338 339 340 339 338 338 338 337 335 333 331 329 321 322 326 331 329 321 319 318 313 310 308
249 265 286 299 305 311 317 320 321 324 326 330 334 334 334 335 335 337 341 343 342 342 342 342 340 339 338 338 338 338 337 337 336 332 324 319 326 329 323 320 316 313 311
261 274 283 288 292 301 309 313 315 317 322 324 326 329 326 326 328 331 333 336 338 338 338 338 341 341 341 341 339 339 340 342 345 343 341 338 329 326 325 324 324 319 311
261 266 272 276 280 286 297 306 311 314 315 317 319 320 321 323 324 326 328 329 329 329 330 332 333 336 338 339 340 340 338 338 342 344 340 338 337 331 323 319 318 317 315
257 261 262 268 278 288 297 303 307 309 310 309 311 314 318 320 323 324 324 325 326 327 327 327 326 327 330 331 333 335 336 338 337 340 341 336 331 327 326 323 314 302 300
254 256 260 269 280 290 297 299 301 301 303 307 309 311 313 315 317 319 320 321 323 324 326 327 329 329 329 329 327 326 327 331 331 333 338 338 337 334 329 322 316 311 302
253 257 265 274 281 286 290 294 298 301 303 303 304 306 308 311 314 315 317 317 318 320 321 323 324 324 325 327 329 331 331 330 327 324 329 331 333 334 336 337 331 322 313